Flag for U.S.A. Weather past 2 weeks in Philadelphia, Pennsylvania, U.S.A.

Now
56 °F

Passing clouds.


Feels Like: 55 °F
Forecast: 48 / 65 °F
Wind: 5 mph from Northwest

Location: Philadelphia International Airport

Current Time: Oct 24, 2014 at 4:42:01 AM

Latest Report: Oct 24, 2014 at 3:54 AM


Visibility: 10 mi

Pressure: 29.84 "Hg

Humidity: 67%

Dew point: 45 °F

Location of PhiladelphiaLocation

Historic Weather in Philadelphia — Graph

°F

Philadelphia temperature yesterday

Maximum temperature yesterday: 57 °F (at 3:54 PM)
Minimum temperature yesterday: 51 °F (at 6:54 AM)
Average temperature yesterday: 54 °F

Past Weeks' High & Low Weather Summary

 TemperatureHumidityPressure
High78 °F (Oct 14, 12:54 PM)94% (Oct 13, 6:54 PM)30.32 "Hg (Oct 13, 6:54 PM)
Low41 °F (Oct 20, 4:54 AM)33% (Oct 9, 11:54 AM)29.61 "Hg (Oct 18, 4:54 AM)
Average60 °F69%29.96 "Hg
* Reported Oct 9 2:54 AM — Oct 24 2:54 AM, Philadelphia, Weather by CustomWeather, © 2014

Note: Actual official high and low records may vary slightly from our data, if they occured in-between our weather recording intervals... More about our weather records

Advertising

Philadelphia weather history for previous 24 hours

 ConditionsComfort  
Time TempWeatherWind HumidityBarometerVisibility
2:54 AM
Oct 24
55 °FPassing clouds.12 mph67%29.83 "Hg10 mi
1:54 AM55 °FMostly cloudy.9 mph67%29.82 "Hg10 mi
12:54 AM55 °FPartly cloudy.13 mph67%29.82 "Hg10 mi
11:54 PM
Oct 23
55 °FPassing clouds.10 mph64%29.83 "Hg10 mi
10:54 PM55 °FOvercast.9 mph64%29.85 "Hg10 mi
9:54 PM55 °FOvercast.12 mph64%29.85 "Hg10 mi
8:54 PM55 °FMostly cloudy.21 mph64%29.84 "Hg10 mi
7:54 PM55 °FPassing clouds.12 mph64%29.83 "Hg10 mi
6:54 PM55 °FPartly sunny.14 mph64%29.81 "Hg10 mi
5:54 PM56 °FMostly cloudy.18 mph62%29.80 "Hg10 mi
4:54 PM57 °FMore clouds than sun.20 mph62%29.78 "Hg10 mi
3:54 PM57 °FOvercast.23 mph62%29.77 "Hg10 mi
2:54 PM55 °FMostly cloudy.25 mph67%29.77 "Hg10 mi
1:54 PM56 °FMostly cloudy.16 mph67%29.77 "Hg10 mi
12:54 PM55 °FMostly cloudy.16 mph72%29.78 "Hg10 mi
11:54 AM54 °FMostly cloudy.20 mph74%29.78 "Hg10 mi
10:54 AM52 °FLight rain. Mostly cloudy.23 mph83%29.78 "Hg10 mi
9:54 AM52 °FMostly cloudy.18 mph80%29.78 "Hg10 mi
9:03 AM51 °FLight rain. Mostly cloudy.18 mph83%29.78 "Hg7 mi
8:54 AM51 °FMostly cloudy.18 mph83%29.77 "Hg10 mi
7:54 AM51 °FLight rain. Overcast.16 mph83%29.77 "Hg10 mi
6:54 AM51 °FRain. Mostly cloudy.17 mph80%29.77 "Hg10 mi
5:54 AM53 °FMostly cloudy.17 mph74%29.77 "Hg10 mi
4:54 AM53 °FMostly cloudy.17 mph74%29.75 "Hg10 mi
Weather by CustomWeather, © 2014

See weather overviewHow to use our weather pages